Weather History for KOTG - November, 2012

Change the Weather History Date:

Friday, November 16, 2012

  Actual Average Record
Temperature  
Mean Temperature 30 °F -  
Max Temperature 46 °F 38 °F 71 °F (2001)
Min Temperature 15 °F 24 °F -5 °F (2014)
Degree Days  
Heating Degree Days 34    
Moisture  
Dew Point 18 °F    
Average Humidity 58    
Maximum Humidity 79    
Minimum Humidity 32    
Precipitation  
Precipitation 0.00 in - - ()
Sea Level Pressure  
Sea Level Pressure 30.36 in    
Wind  
Wind Speed 7 mph (SSE)    
Max Wind Speed 18 mph    
Max Gust Speed 24 mph    
Visibility 10 miles    
Events      
Averages and records for this station are not official NWS values.
T = Trace of Precipitation, MM = Missing Value Source: NWS Daily Summary

Daily Weather History Graph

Daily Weather History Graph

Search for Another Location

Airport or City:

Trip Planner

Search our weather history database for the weather conditions in past years. The results will help you decide how hot, cold, wet, or windy it might be!

Date:

Astronomy

Nov. 16, 2012 Rise Set
Actual Time 7:18 AM CST 4:55 PM CST
Civil Twilight 6:47 AM CST 5:26 PM CST
Nautical Twilight 6:12 AM CST 6:01 PM CST
Astronomical Twilight 5:38 AM CST 6:35 PM CST
Moon 10:15 AM CST (11/16) 7:55 PM CST (11/16)
Length of Visible Light 10h 39m
Length of Day
9h 37m
Waxing Crescent, 12% of the Moon is Illuminated
Nov 16
Waxing Crescent
Nov 20
First Quarter
Nov 28
Full
Dec 6
Last Quarter
Dec 13
New

Hourly Weather History & Observations

Time (CST) Temp. Windchill Dew Point Humidity Pressure Visibility Wind Dir Wind Speed Gust Speed Precip Events Conditions
12:15 AM 21.2 °F 14.9 °F 12.2 °F 68% 30.46 in 10.0 mi NNW 4.6 mph - N/A   Clear
12:35 AM 19.4 °F 10.4 °F 12.2 °F 74% 30.46 in 10.0 mi North 6.9 mph - N/A   Clear
12:55 AM 19.4 °F 11.5 °F 12.2 °F 74% 30.46 in 10.0 mi NNW 5.8 mph - N/A   Clear
1:15 AM 19.4 °F 10.4 °F 10.4 °F 68% 30.45 in 10.0 mi NNW 6.9 mph - N/A   Clear
1:35 AM 19.4 °F 11.5 °F 12.2 °F 74% 30.45 in 10.0 mi North 5.8 mph - N/A   Clear
1:55 AM 19.4 °F 10.4 °F 12.2 °F 74% 30.45 in 10.0 mi North 6.9 mph - N/A   Clear
2:15 AM 19.4 °F 11.5 °F 12.2 °F 74% 30.45 in 10.0 mi North 5.8 mph - N/A   Clear
2:35 AM 17.6 °F 9.3 °F 10.4 °F 73% 30.45 in 10.0 mi North 5.8 mph - N/A   Clear
2:55 AM 19.4 °F 12.8 °F 12.2 °F 74% 30.44 in 10.0 mi North 4.6 mph - N/A   Clear
3:15 AM 17.6 °F 12.3 °F 10.4 °F 73% 30.45 in 10.0 mi NNW 3.5 mph - N/A   Clear
3:35 AM 17.6 °F - 10.4 °F 73% 30.44 in 10.0 mi Calm Calm - N/A   Clear
3:55 AM 17.6 °F - 10.4 °F 73% 30.44 in 10.0 mi Calm Calm - N/A   Clear
4:15 AM 19.4 °F 12.8 °F 12.2 °F 74% 30.43 in 10.0 mi North 4.6 mph - N/A   Clear
4:35 AM 15.8 °F 10.2 °F 10.4 °F 79% 30.43 in 10.0 mi North 3.5 mph - N/A   Clear
4:55 AM 15.8 °F 10.2 °F 10.4 °F 79% 30.43 in 10.0 mi NW 3.5 mph - N/A   Clear
5:15 AM 15.8 °F - 8.6 °F 73% 30.42 in 10.0 mi Calm Calm - N/A   Clear
5:35 AM 17.6 °F 12.3 °F 10.4 °F 73% 30.42 in 10.0 mi NNE 3.5 mph - N/A   Clear
5:55 AM 15.8 °F - 10.4 °F 79% 30.41 in 10.0 mi Calm Calm - N/A   Clear
6:15 AM 17.6 °F - 10.4 °F 73% 30.41 in 10.0 mi Calm Calm - N/A   Clear
6:35 AM 15.8 °F - 8.6 °F 73% 30.41 in 10.0 mi Calm Calm - N/A   Clear
6:55 AM 17.6 °F - 10.4 °F 73% 30.41 in 10.0 mi Calm Calm - N/A   Clear
7:15 AM 15.8 °F - 8.6 °F 73% 30.42 in 10.0 mi Calm Calm - N/A   Clear
7:35 AM 17.6 °F - 10.4 °F 73% 30.42 in 9.0 mi Calm Calm - N/A   Clear
7:55 AM 17.6 °F - 12.2 °F 79% 30.42 in 8.0 mi Calm Calm - N/A   Clear
8:15 AM 23.0 °F 18.4 °F 14.0 °F 68% 30.43 in 10.0 mi SSE 3.5 mph - N/A   Clear
8:35 AM 24.8 °F 20.5 °F 14.0 °F 64% 30.43 in 10.0 mi SE 3.5 mph - N/A   Clear
8:55 AM 26.6 °F 18.2 °F 15.8 °F 64% 30.43 in 10.0 mi SE 8.1 mph - N/A   Clear
9:15 AM 28.4 °F 22.2 °F 15.8 °F 59% 30.44 in 10.0 mi SE 5.8 mph - N/A   Clear
9:35 AM 30.2 °F 22.6 °F 15.8 °F 55% 30.44 in 10.0 mi SE 8.1 mph - N/A   Clear
9:55 AM 32.0 °F 25.6 °F 17.6 °F 55% 30.44 in 10.0 mi SSE 6.9 mph - N/A   Clear
10:15 AM 33.8 °F 26.4 °F 17.6 °F 52% 30.44 in 10.0 mi South 9.2 mph - N/A   Clear
10:35 AM 35.6 °F 29.2 °F 17.6 °F 48% 30.43 in 10.0 mi SSE 8.1 mph - N/A   Clear
10:55 AM 37.4 °F 29.8 °F 17.6 °F 45% 30.43 in 10.0 mi South 11.5 mph - N/A   Clear
11:15 AM 39.2 °F 32.0 °F 17.6 °F 42% 30.42 in 10.0 mi South 11.5 mph - N/A   Clear
11:35 AM 39.2 °F 31.6 °F 17.6 °F 42% 30.41 in 10.0 mi South 12.7 mph - N/A   Clear
11:55 AM 41.0 °F 34.3 °F 17.6 °F 39% 30.41 in 10.0 mi South 11.5 mph - N/A   Clear
12:15 PM 41.0 °F 34.7 °F 19.4 °F 42% 30.39 in 10.0 mi South 10.4 mph - N/A   Clear
12:35 PM 42.8 °F 37.0 °F 17.6 °F 36% 30.39 in 10.0 mi South 10.4 mph - N/A   Clear
12:55 PM 42.8 °F 36.6 °F 19.4 °F 39% 30.38 in 10.0 mi South 11.5 mph - N/A   Clear
1:15 PM 44.6 °F 38.4 °F 17.6 °F 34% 30.37 in 10.0 mi South 12.7 mph - N/A   Clear
1:35 PM 44.6 °F 39.2 °F 17.6 °F 34% 30.36 in 10.0 mi South 10.4 mph 17.3 mph N/A   Clear
1:55 PM 46.4 °F 41.1 °F 17.6 °F 32% 30.35 in 10.0 mi South 11.5 mph - N/A   Clear
2:15 PM 46.4 °F 41.1 °F 17.6 °F 32% 30.34 in 9.0 mi South 11.5 mph - N/A   Clear
2:35 PM 46.4 °F 40.7 °F 19.4 °F 34% 30.32 in 10.0 mi SSE 12.7 mph - N/A   Clear
2:55 PM 46.4 °F 40.7 °F 19.4 °F 34% 30.31 in 10.0 mi South 12.7 mph - N/A   Clear
3:15 PM 46.4 °F 40.4 °F 21.2 °F 37% 30.31 in 10.0 mi SSE 13.8 mph - N/A   Clear
3:35 PM 46.4 °F 40.1 °F 21.2 °F 37% 30.31 in 10.0 mi SSE 15.0 mph 18.4 mph N/A   Clear
3:55 PM 46.4 °F 41.1 °F 21.2 °F 37% 30.31 in 10.0 mi SSE 11.5 mph - N/A   Clear
4:15 PM 44.6 °F 38.8 °F 21.2 °F 39% 30.31 in 10.0 mi South 11.5 mph - N/A   Clear
4:35 PM 44.6 °F 38.8 °F 23.0 °F 43% 30.30 in 10.0 mi SSE 11.5 mph - N/A   Clear
4:55 PM 42.8 °F 36.6 °F 23.0 °F 46% 30.29 in 10.0 mi SSE 11.5 mph - N/A   Clear
5:15 PM 42.8 °F 36.6 °F 23.0 °F 46% 30.28 in 10.0 mi SSE 11.5 mph - N/A   Clear
5:35 PM 41.0 °F 34.7 °F 23.0 °F 49% 30.28 in 10.0 mi SSE 10.4 mph - N/A   Clear
5:55 PM 39.2 °F 32.0 °F 23.0 °F 52% 30.27 in 10.0 mi SSE 11.5 mph - N/A   Clear
6:15 PM 39.2 °F 32.5 °F 24.8 °F 56% 30.27 in 10.0 mi South 10.4 mph - N/A   Clear
6:35 PM 39.2 °F 32.5 °F 24.8 °F 56% 30.27 in 10.0 mi SSE 10.4 mph - N/A   Clear
6:55 PM 39.2 °F 32.5 °F 24.8 °F 56% 30.27 in 10.0 mi South 10.4 mph - N/A   Clear
7:15 PM 39.2 °F 32.0 °F 24.8 °F 56% 30.26 in 10.0 mi SSE 11.5 mph - N/A   Clear
7:35 PM 39.2 °F 31.6 °F 24.8 °F 56% 30.26 in 10.0 mi SSE 12.7 mph - N/A   Clear
7:55 PM 39.2 °F 32.0 °F 24.8 °F 56% 30.25 in 10.0 mi SSE 11.5 mph - N/A   Clear
8:15 PM 39.2 °F 30.8 °F 24.8 °F 56% 30.25 in 10.0 mi SSE 15.0 mph - N/A   Clear
8:35 PM 39.2 °F 31.6 °F 24.8 °F 56% 30.25 in 10.0 mi South 12.7 mph - N/A   Clear
8:55 PM 37.4 °F 28.5 °F 24.8 °F 60% 30.25 in 10.0 mi South 15.0 mph - N/A   Clear
9:15 PM 37.4 °F 28.5 °F 24.8 °F 60% 30.25 in 10.0 mi South 15.0 mph - N/A   Clear
9:55 PM 39.2 °F 30.2 °F 24.8 °F 56% 30.25 in 10.0 mi South 17.3 mph - N/A   Clear
10:15 PM 39.2 °F 30.2 °F 24.8 °F 56% 30.25 in 10.0 mi South 17.3 mph - N/A   Clear
10:35 PM 39.2 °F 30.8 °F 26.6 °F 61% 30.26 in 10.0 mi South 15.0 mph - N/A   Clear
10:55 PM 39.2 °F 30.2 °F 26.6 °F 61% 30.26 in 10.0 mi South 17.3 mph - N/A   Clear
11:15 PM 39.2 °F 30.2 °F 26.6 °F 61% 30.26 in 10.0 mi South 17.3 mph 24.2 mph N/A   Clear
11:35 PM 37.4 °F 27.5 °F 24.8 °F 60% 30.26 in 10.0 mi South 18.4 mph - N/A   Clear
11:55 PM 37.4 °F 27.8 °F 26.6 °F 65% 30.25 in 10.0 mi South 17.3 mph - N/A   Clear